Tracking 28920 objects as of 25-May-2024
HD Live streaming from Space Station
objects crossing your sky now

STARLINK-6055

Track STARLINK-6055 now!
10-day predictions
STARLINK-6055 is classified as:


NORAD ID: 56467
Int'l Code: 2023-064V
Perigee: 577.1 km
Apogee: 581.2 km
Inclination: 70.0 °
Period: 96.1 minutes
Semi major axis: 6950 km
RCS: Unknown
Launch date: May 10, 2023
Source: United States (US)
Launch site: AIR FORCE WESTERN TEST RANGE (AFWTR)
Your satellite tracking list
Your tracking list is empty




NASA's NSSDC Master Catalog

Two Line Element Set (TLE):
1 56467U 23064V   24145.95873324 -.00000079  00000-0  11710-5 0  9992
2 56467  70.0000 332.8686 0002949 265.5234  94.5588 14.98331232 58170
Source of the keplerian elements: AFSPC